Flag for Germany Weather past 2 weeks in Freising, Bavaria, Germany

Now
55 °F

Partly sunny.


Feels Like: 54 °F
Forecast: 42 / 69 °F
Wind: 5 mph from West

Location: Muenchen Flughafen

Current Time: Aug 21, 2014 at 10:19:17 AM

Latest Report: Aug 21, 2014 at 9:00 AM


Visibility: 25 mi

Pressure: 30.08 "Hg

Humidity: 83%

Dew point: 50 °F

Location of FreisingLocation

Historic Weather in Freising — Graph

°F

Freising temperature yesterday

Maximum temperature yesterday: 62 °F (at 2:00 PM)
Minimum temperature yesterday: 54 °F (at 6:00 AM)
Average temperature yesterday: 59 °F

Past Weeks' High & Low Weather Summary

 TemperatureHumidityPressure
High83 °F (Aug 10, 4:00 PM)99% (Aug 8, 1:00 AM)30.17 "Hg (Aug 8, 1:00 AM)
Low48 °F (Aug 18, 3:00 AM)39% (Aug 17, 4:00 PM)29.66 "Hg (Aug 13, 5:00 PM)
Average62 °F76%29.95 "Hg
* Reported Aug 6 9:00 AM — Aug 21 9:00 AM, Freising, Weather by CustomWeather, © 2014

Note: Actual official high and low records may vary slightly from our data, if they occured in-between our weather recording intervals... More about our weather records

Advertising

Freising weather history for previous 24 hours

 ConditionsComfort  
Time TempWeatherWind HumidityBarometerVisibility
9:00 AM
Aug 21
55 °FPartly sunny.5 mph83%30.08 "Hg25 mi
8:00 AM54 °FOvercast.3 mph87%30.07 "Hg12 mi
7:00 AM54 °FOvercast.2 mph89%30.06 "Hg6 mi
6:00 AM53 °FLight rain. Overcast.2 mph97%30.04 "Hg3 mi
5:00 AM52 °FOvercast.1 mph97%30.04 "Hg5 mi
4:00 AM50 °FFog.No wind99%30.03 "Hg5 mi
3:00 AM53 °FOvercast.1 mph96%30.02 "Hg9 mi
2:00 AM54 °FOvercast.2 mph95%30.01 "Hg12 mi
1:00 AM54 °FSprinkles. Overcast.1 mph93%30.03 "Hg12 mi
12:00 AM55 °FOvercast.1 mph89%30.02 "Hg16 mi
11:00 PM
Aug 20
55 °FOvercast.1 mph91%30.02 "Hg19 mi
10:00 PM56 °FOvercast.2 mph86%30.02 "Hg19 mi
9:00 PM56 °FOvercast.2 mph86%30.01 "Hg19 mi
8:00 PM58 °FOvercast.2 mph79%30.00 "Hg19 mi
7:00 PM61 °FOvercast.1 mph73%30.00 "Hg25 mi
6:00 PM61 °FOvercast.2 mph72%29.99 "Hg25 mi
5:00 PM62 °FOvercast.2 mph65%30.00 "Hg25 mi
4:00 PM61 °FOvercast.1 mph69%30.01 "Hg25 mi
3:00 PM61 °FLight rain. Overcast.1 mph63%30.02 "Hg31 mi
2:00 PM62 °FOvercast.1 mph61%30.02 "Hg31 mi
1:00 PM61 °FOvercast.2 mph62%30.02 "Hg31 mi
12:00 PM60 °FOvercast.1 mph63%30.03 "Hg31 mi
11:00 AM59 °FOvercast.1 mph64%30.05 "Hg31 mi
10:00 AM59 °FOvercast.1 mph66%30.04 "Hg31 mi
Weather by CustomWeather, © 2014

See weather overviewHow to use our weather pages